Location: Ab? ar R?sh Ba?r?
(24.1861°N, 32.8847°E)
Time: 20:15:46
(UTC+00:00)

H-2A R/B - Pass Details

Date: 03 June 2022
Orbit: 576 x 652 km, 98.5° (Epoch: 03 July)

Event Time Altitude Azimuth Distance (km) Brightness Sun altitude
Rises 18:01:17 0° 5° (N) 2,806 5.9 -18.1°
Reaches altitude 10° 18:03:27 10° 1° (N) 1,913 5.0 -18.5°
Maximum altitude 18:07:30 53° 284° (WNW) 731 2.7 -19.3°
Drops below altitude 10° 18:11:36 10° 207° (SSW) 1,946 4.5 -20.0°
Enters shadow 18:13:21 - 204° (SSW) 2,661 5.2 -20.3°
